User: anonymous   Login
Location: St. Malo Provincial Park
(49.3214°N, 96.9305°W)
Time: 19:20:14
(UTC-05:00)
Language:

Iridium 6 - Orbit

View from above orbital plane
View from above orbital plane
View from above satellite
View from above satellite

Ground track
Ground track

The orbit data is extracted from the following two-line orbital elements,

1 24794U 97020C   16206.24204836  .00000158  00000-0  49368-4 0  9996
2 24794  86.3966  96.0165 0002191  82.6889 277.4555 14.34221060  6191
Epoch (UTC): 24 July 2016 05:48:32
Eccentricity: 0.0002191
inclination: 86.3966°
perigee height: 776 km
apogee height: 779 km
right ascension of ascending node: 96.0165°
argument of perigee: 82.6889°
revolutions per day: 14.34221060
mean anomaly at epoch: 277.4555°
orbit number at epoch: 619

The dashed part of the orbit path shows where the satellite is in the earth's shadow,  

DLR